Location: Anjeux
(47.8815°N, 6.2076°E)
Time: 02:15:54
(UTC+00:00)

First-Move - Pass Details

Date: 07 December 2021
Orbit: 574 x 664 km, 97.6° (Epoch: 22 January)

Event Time Altitude Azimuth Distance (km) Brightness Sun altitude
Rises 04:37:55 0° 8° (N) 3,009 ? -24.6°
Reaches altitude 10° 04:40:12 10° 4° (N) 2,097 ? -24.2°
Enters shadow 04:41:02 15° 1° (N) 1,769 ? -24.1°
